Stations météo

réclame
Mon MeteoGroup
Stornoway, Grande-Bretagne (3026): Température de l'air & dewpoint: 19.06.2018 20:00:00 - 25.06.2018 20:00:00 (BST)Stornoway, Grande-Bretagne (3026): Température de l'air -20cm & Température de l'air -100cm: 19.06.2018 20:00:00 - 25.06.2018 20:00:00 (BST)Stornoway, Grande-Bretagne (3026): Vitesse du vent & gusts: 19.06.2018 20:00:00 - 25.06.2018 20:00:00 (BST)Stornoway, Grande-Bretagne (3026): Direction du vent: 19.06.2018 20:00:00 - 25.06.2018 20:00:00 (BST)Stornoway, Grande-Bretagne (3026): reduced air pressure: 19.06.2018 20:00:00 - 25.06.2018 20:00:00 (BST)Stornoway, Grande-Bretagne (3026): visibility: 19.06.2018 20:00:00 - 25.06.2018 20:00:00 (BST)Stornoway, Grande-Bretagne (3026): Ensoleillement: 19.06.2018 20:00:00 - 25.06.2018 20:00:00 (BST)Stornoway, Grande-Bretagne (3026): Quantités de précipitations: 19.06.2018 20:00:00 - 25.06.2018 20:00:00 (BST)
Date & Time tt [°C] td [°C] tt -20cm [°C] tt -100cm [°C] ff [km/h] ff [knt] fx [km/h] fx [knt] dd ppp [hPa] vv [km] sd [min] rr [mm]
25.06.2018 20:00:00 13,9 11,9 - - 11 6 - - SSW 1027,3 30 0 0,0
25.06.2018 19:00:00 13,8 11,8 - - 9 5 - - S 1027,2 35 0 0,0
25.06.2018 18:00:00 14,3 12,3 - - 11 6 - - S 1027,2 35 0 0,0
25.06.2018 17:00:00 14,2 12,0 - - 15 8 - - SSW 1027,3 45 0 0,0
25.06.2018 16:00:00 12,8 11,2 - - 16 9 - - S 1027,3 19 0 0,0
25.06.2018 15:00:00 13,1 11,4 - - 21 11 - - S 1027,3 20 0 0,0
25.06.2018 14:00:00 12,6 11,0 - - 21 11 - - S 1027,0 17 0 0,0
25.06.2018 13:00:00 12,5 10,6 - - 16 9 - - S 1026,7 18 0 0,0
25.06.2018 12:00:00 14,3 11,1 - - 18 10 - - WSW 1026,5 35 0 0,0
25.06.2018 11:00:00 14,1 11,0 - - 15 8 - - WSW 1026,2 30 0 0,0
25.06.2018 10:00:00 13,8 10,2 13,7 12,2 18 10 - - WSW 1025,6 30 0 0,0
25.06.2018 09:00:00 14,1 9,8 - - 15 8 - - SW 1024,9 28 0 0,0
25.06.2018 08:00:00 13,0 9,2 - - 15 8 - - WSW 1024,6 30 0 0,0
25.06.2018 07:00:00 12,4 9,1 - - 11 6 - - SW 1024,4 30 0 0,0
25.06.2018 06:00:00 11,5 9,3 - - 15 8 - - S 1024,0 30 0 0,0
25.06.2018 05:00:00 10,7 9,2 - - 16 9 - - SSW 1023,8 27 0 0,0
25.06.2018 04:00:00 10,3 8,7 - - 24 13 - - SSW 1023,5 26 0 0,0
25.06.2018 03:00:00 10,2 8,3 - - 21 11 - - SSW 1023,6 27 0 0,0
25.06.2018 02:00:00 10,7 8,9 - - 18 10 - - S 1023,6 35 0 0,0
25.06.2018 01:00:00 9,8 8,2 - - 21 11 - - SSW 1023,5 25 - 0,0
25.06.2018 00:00:00 10,6 8,8 - - 18 10 - - SSW 1023,8 29 0 0,0
24.06.2018 23:00:00 11,3 8,8 - - 21 11 - - SSW 1023,5 28 18 0,0
24.06.2018 22:00:00 12,1 9,0 - - 21 11 - - SSW 1023,6 35 60 0,0
24.06.2018 21:00:00 13,0 9,1 - - 22 12 - - S 1023,5 30 42 0,0
24.06.2018 20:00:00 14,3 9,0 - - 22 12 - - SW 1023,4 20 48 0,0
24.06.2018 19:00:00 14,9 8,4 - - 22 12 - - SW 1023,6 40 54 0,0
24.06.2018 18:00:00 16,6 8,5 - - 22 12 - - WSW 1023,7 29 54 0,0
24.06.2018 17:00:00 15,9 9,2 - - 21 11 - - SW 1024,0 28 42 0,0
24.06.2018 16:00:00 16,2 8,7 - - 21 11 - - SW 1024,0 35 30 0,0
24.06.2018 15:00:00 16,0 8,3 - - 22 12 - - SW 1024,0 50 30 0,0
24.06.2018 14:00:00 15,4 8,1 - - 24 13 - - WSW 1024,1 45 12 0,0
24.06.2018 13:00:00 15,6 8,0 - - 24 13 - - SW 1024,1 30 12 0,0
24.06.2018 12:00:00 14,4 8,1 - - 22 12 - - SW 1024,1 40 0 0,0
24.06.2018 11:00:00 13,9 8,1 - - 18 10 - - WSW 1024,0 30 0 0,0
24.06.2018 10:00:00 13,4 7,7 13,4 12,0 24 13 - - W 1024,1 35 6 0,0
24.06.2018 09:00:00 13,0 7,8 - - 26 14 - - WSW 1024,0 24 6 0,0
24.06.2018 08:00:00 12,1 7,6 - - 24 13 - - WSW 1023,8 30 0 0,0
24.06.2018 07:00:00 11,6 7,6 - - 16 9 - - WSW 1023,6 29 0 0,0
24.06.2018 06:00:00 10,8 7,2 - - 16 9 - - SW 1023,7 40 0 0,0
24.06.2018 05:00:00 10,8 7,5 - - 16 9 - - SW 1023,7 35 0 0,0
24.06.2018 04:00:00 10,6 7,8 - - 13 7 - - SW 1023,9 35 0 0,0
24.06.2018 03:00:00 11,1 8,1 - - 16 9 - - SW 1024,0 29 0 0,0
24.06.2018 02:00:00 11,1 7,9 - - 22 12 - - SW 1024,2 35 0 0,0
24.06.2018 01:00:00 11,4 8,7 - - 16 9 - - SW 1024,7 30 - 0,0
24.06.2018 00:00:00 11,5 9,2 - - 21 11 - - SW 1024,9 24 0 0,0
23.06.2018 23:00:00 11,2 8,8 - - 18 10 - - SW 1024,9 27 0 0,0
23.06.2018 22:00:00 11,9 9,5 - - 21 11 - - SW 1024,9 30 0 0,0
23.06.2018 21:00:00 12,7 9,8 - - 18 10 - - SW 1025,0 26 24 0,0
23.06.2018 20:00:00 13,3 9,7 - - 31 17 46 25 WSW 1024,8 23 24 0,0
23.06.2018 19:00:00 13,9 10,1 - - 28 15 - - W 1025,1 23 12 0,0
23.06.2018 18:00:00 13,8 10,7 - - 29 16 - - WSW 1025,1 26 0 0,2
23.06.2018 17:00:00 13,1 11,4 - - 31 17 46 25 WSW 1025,1 14 0 0,0
23.06.2018 16:00:00 12,7 11,9 - - 31 17 - - WSW 1025,4 6 0 0,0
23.06.2018 15:00:00 12,4 11,5 - - 29 16 48 26 WSW 1025,4 2,9 0 0,0
23.06.2018 14:00:00 12,9 10,9 - - 34 18 50 27 WSW 1025,5 15 0 0,0
23.06.2018 13:00:00 12,6 11,4 - - 31 17 46 25 WSW 1025,4 9 0 0,0
23.06.2018 12:00:00 13,4 10,4 - - 31 17 52 28 WSW 1025,3 50 0 0,0
23.06.2018 11:00:00 13,4 10,2 - - 29 16 - - WSW 1025,1 45 0 0,0
23.06.2018 10:00:00 12,3 9,9 13,4 12,0 24 13 46 25 WSW 1025,7 50 0 0,0
23.06.2018 09:00:00 11,9 9,4 - - 29 16 - - WSW 1025,9 20 0 0,0
23.06.2018 08:00:00 12,6 9,0 - - 28 15 - - WSW 1026,0 25 0 0,0
23.06.2018 07:00:00 11,7 8,7 - - 22 12 - - WSW 1026,1 29 0 0,0
23.06.2018 06:00:00 11,3 8,4 - - 22 12 - - WSW 1026,2 29 0 0,0
23.06.2018 05:00:00 11,0 8,2 - - 22 12 - - WSW 1026,4 30 0 0,0
23.06.2018 04:00:00 10,8 8,4 - - 21 11 - - WSW 1026,7 23 0 0,0
23.06.2018 03:00:00 10,8 8,4 - - 21 11 - - WSW 1027,1 26 0 0,0
23.06.2018 02:00:00 10,9 8,4 - - 21 11 - - WSW 1027,7 24 0 0,0
23.06.2018 01:00:00 10,6 8,4 - - 15 8 - - WSW 1027,9 25 - 0,0
23.06.2018 00:00:00 11,0 8,5 - - 18 10 - - WSW 1028,5 26 0 0,0
22.06.2018 23:00:00 11,2 7,9 - - 18 10 - - W 1028,8 29 0 0,0
22.06.2018 22:00:00 11,7 7,8 - - 22 12 - - W 1028,8 30 0 0,0
22.06.2018 21:00:00 12,1 7,8 - - 26 14 - - W 1028,9 35 0 0,0
22.06.2018 20:00:00 12,9 7,3 - - 29 16 - - W 1029,0 40 18 0,0
22.06.2018 19:00:00 13,4 7,1 - - 31 17 - - W 1029,1 35 42 0,0
22.06.2018 18:00:00 13,7 7,5 - - 28 15 - - W 1029,2 50 0 0,0
22.06.2018 17:00:00 13,8 7,3 - - 28 15 - - W 1029,6 40 0 0,0
22.06.2018 16:00:00 13,7 7,8 - - 34 18 46 25 W 1030,1 30 0 0,0
22.06.2018 15:00:00 14,3 7,4 - - 34 18 48 26 W 1030,4 35 30 0,0
22.06.2018 14:00:00 14,7 7,5 - - 34 18 48 26 W 1030,7 30 42 0,0
22.06.2018 13:00:00 15,5 7,9 - - 31 17 - - W 1030,6 35 48 0,0
22.06.2018 12:00:00 14,6 7,8 - - 26 14 - - W 1030,7 45 48 0,0
22.06.2018 11:00:00 14,0 7,7 - - 28 15 - - W 1031,0 24 12 0,0
22.06.2018 10:00:00 12,6 8,1 13,2 12,0 28 15 - - W 1031,3 28 0 0,0
22.06.2018 09:00:00 12,2 7,3 - - 24 13 - - W 1031,3 30 0 0,0
22.06.2018 08:00:00 11,7 8,4 - - 24 13 - - W 1031,0 25 0 0,0
22.06.2018 07:00:00 11,1 8,5 - - 16 9 - - WNW 1031,1 23 0 0,0
22.06.2018 06:00:00 10,5 8,7 - - 15 8 - - WNW 1031,0 20 0 0,0
22.06.2018 05:00:00 10,2 8,1 - - 18 10 - - W 1031,4 26 0 0,0
22.06.2018 04:00:00 9,5 7,3 - - 13 7 - - W 1031,5 30 0 0,0
22.06.2018 03:00:00 9,0 6,6 - - 16 9 - - WNW 1031,7 27 0 0,0
22.06.2018 02:00:00 8,9 6,4 - - 15 8 - - WNW 1031,9 28 0 0,0
22.06.2018 01:00:00 9,9 6,9 - - 13 7 - - WNW 1032,1 30 - 0,0
22.06.2018 00:00:00 9,4 6,7 - - 15 8 - - WNW 1032,1 25 0 0,0
21.06.2018 23:00:00 9,5 6,3 - - 15 8 - - WNW 1032,1 29 0 0,0
21.06.2018 22:00:00 10,5 6,9 - - 22 12 - - NW 1031,9 22 0 0,0
21.06.2018 21:00:00 11,2 6,9 - - 24 13 - - NW 1031,3 21 30 0,0
21.06.2018 20:00:00 12,3 7,0 - - 29 16 - - NW 1030,9 17 54 0,0
21.06.2018 19:00:00 12,6 6,9 - - 31 17 - - NW 1030,5 29 60 0,0
21.06.2018 18:00:00 12,8 6,5 - - 31 17 - - NW 1030,2 27 54 0,0
21.06.2018 17:00:00 13,7 6,5 - - 35 19 50 27 NW 1029,6 27 60 0,0
21.06.2018 16:00:00 13,1 6,5 - - 41 22 55 30 NW 1029,3 27 54 0,0
21.06.2018 15:00:00 13,2 6,6 - - 37 20 50 27 NW 1028,5 20 54 0,0
21.06.2018 14:00:00 12,9 6,0 - - 39 21 52 28 NW 1028,4 45 60 0,0
21.06.2018 13:00:00 13,4 6,7 - - 37 20 52 28 NW 1028,0 24 60 0,0
21.06.2018 12:00:00 13,1 6,2 - - 39 21 50 27 NW 1027,4 23 60 0,0
21.06.2018 11:00:00 12,5 5,7 - - 35 19 46 25 NW 1026,9 30 60 0,0
21.06.2018 10:00:00 11,6 6,0 13,2 12,0 34 18 - - NW 1026,2 23 60 0,0
21.06.2018 09:00:00 11,0 6,1 - - 35 19 48 26 NW 1025,4 30 48 0,0
21.06.2018 08:00:00 10,1 8,1 - - 31 17 46 25 NW 1024,4 15 12 0,2
21.06.2018 07:00:00 10,1 7,4 - - 31 17 - - NW 1023,7 19 18 0,0
21.06.2018 06:00:00 8,6 5,6 - - 22 12 - - NW 1023,2 25 18 0,0
21.06.2018 05:00:00 8,5 5,8 - - 26 14 - - NW 1022,5 35 0 0,0
21.06.2018 04:00:00 8,3 6,3 - - 22 12 - - NW 1021,9 40 0 0,0
21.06.2018 03:00:00 8,3 6,6 - - 22 12 48 26 NNW 1021,3 35 0 1,0
21.06.2018 02:00:00 8,3 6,0 - - 22 12 - - NW 1020,4 23 0 0,0
21.06.2018 01:00:00 7,9 5,8 - - 22 12 - - NW 1019,7 50 - 0,2
21.06.2018 00:00:00 7,6 5,8 - - 16 9 - - NW 1018,9 27 0 0,6
20.06.2018 23:00:00 7,5 5,9 - - 13 7 - - NW 1018,0 50 0 0,4
20.06.2018 22:00:00 8,5 6,3 - - 22 12 - - NW 1017,0 45 24 0,0
20.06.2018 21:00:00 9,9 6,9 - - 22 12 - - NW 1015,8 40 30 0,8
20.06.2018 20:00:00 10,3 6,9 - - 18 10 - - NW 1015,3 40 6 0,0
20.06.2018 19:00:00 10,2 7,5 - - 15 8 - - W 1015,0 50 6 0,2
20.06.2018 18:00:00 7,9 6,2 - - 29 16 54 29 WNW 1015,4 6 6 1,8
20.06.2018 17:00:00 12,7 6,6 - - 29 16 - - WSW 1014,8 30 18 0,0
20.06.2018 16:00:00 11,5 6,6 - - 28 15 48 26 W 1015,2 30 0 0,8
20.06.2018 15:00:00 12,4 6,1 - - 24 13 - - WSW 1015,3 40 0 0,0
20.06.2018 14:00:00 12,4 5,5 - - 24 13 - - W 1015,0 35 12 0,0
20.06.2018 13:00:00 13,2 4,7 - - 29 16 - - W 1014,8 50 30 0,0
20.06.2018 12:00:00 12,5 5,7 - - 22 12 - - W 1014,8 35 18 0,0
20.06.2018 11:00:00 11,7 5,8 - - 15 8 - - WSW 1014,7 35 30 0,2
20.06.2018 10:00:00 11,0 4,5 13,2 12,2 22 12 - - WNW 1014,6 45 0 0,0
20.06.2018 09:00:00 11,4 4,6 - - 13 7 - - W 1014,2 45 18 0,0
20.06.2018 08:00:00 9,7 6,7 - - 26 14 - - W 1013,7 12 30 0,0
20.06.2018 07:00:00 9,9 7,2 - - 4 2 - - NW 1013,0 30 12 0,0
20.06.2018 06:00:00 8,6 7,3 - - 4 2 - - WNW 1013,1 21 0 0,0
20.06.2018 05:00:00 8,2 7,0 - - 8 4 - - NW 1012,8 17 0 0,0
20.06.2018 04:00:00 8,2 6,9 - - 5 3 - - NNW 1012,5 17 0 0,0
20.06.2018 03:00:00 8,6 7,1 - - 5 3 - - NW 1012,7 18 0 0,0
20.06.2018 02:00:00 8,9 7,0 - - 8 4 - - NW 1012,8 18 0 0,0
20.06.2018 01:00:00 9,1 6,7 - - 2 1 - - SE 1013,1 20 - 0,0
20.06.2018 00:00:00 9,1 6,6 - - 4 2 - - S 1013,6 20 0 0,0
19.06.2018 23:00:00 10,0 6,4 - - 9 5 - - W 1013,9 21 0 0,0
19.06.2018 22:00:00 10,7 6,0 - - 8 4 - - W 1014,0 28 0 0,0
19.06.2018 21:00:00 11,4 5,3 - - 13 7 - - W 1014,1 30 0 0,0
19.06.2018 20:00:00 12,0 4,7 - - 22 12 - - W 1014,3 30 0 0,0

tt = Température de l'air
td = dewpoint
tt -20cm = Température de l'air -20cm
tt -100cm = Température de l'air -100cm
ff = Vitesse du vent
fx = gusts
dd = Direction du vent
ppp = reduced air pressure
vv = visibility
sd = Ensoleillement
rr = Quantités de précipitations

stations d'obs. à proximité